Temperature
11 11 11 10 10 10 9 9 9 9 8 8 8 8 8 9 9 9 9 9 9 10 10 10 10 11 11 12 12 12 13 13 14 15 16 16 16 16 16 16 16 16 16
11 11 10 10 10 9 9 9 9 8 8 8 8 8 8 8 8 8 8 9 9 9 9 9 10 10 11 11 11 12 12 13 13 14 15 16 16 16 16 16 16 16 16
11 11 10 10 10 9 9 9 8 8 8 8 8 8 8 8 8 8 8 8 8 8 9 9 9 10 10 10 11 11 11 12 12 13 14 15 15 16 15 15 15 15 15
11 10 10 10 9 9 9 8 8 8 8 8 7 7 7 7 7 7 8 8 8 8 8 8 9 9 9 10 10 10 11 11 12 12 13 14 14 15 15 15 15 14 15
10 10 10 9 9 9 9 8 8 8 8 7 7 7 7 7 7 7 7 7 7 7 8 8 8 8 9 9 10 10 10 10 11 11 12 13 13 14 14 15 14 14 14
10 10 10 9 9 9 8 8 8 8 8 8 8 8 7 7 7 7 7 6 7 7 7 7 8 8 8 9 9 10 10 10 10 11 11 12 13 13 14 14 14 14 13
10 10 9 9 9 8 8 8 8 8 8 8 8 8 8 8 7 7 7 6 6 7 7 7 7 7 8 8 9 9 9 10 10 10 11 11 12 13 14 14 14 14 14
10 9 9 9 8 8 8 8 8 8 8 8 8 8 7 8 7 7 7 6 6 6 6 7 7 7 7 8 8 9 9 10 10 10 10 11 11 12 13 14 14 13 13
10 9 9 8 8 8 8 8 8 8 8 8 8 8 7 7 7 7 7 6 6 6 6 6 6 7 7 7 8 8 9 9 10 10 10 10 10 11 12 12 12 12 12
9 9 9 8 8 8 8 8 8 8 8 8 8 8 7 7 7 7 7 6 6 6 6 6 6 6 7 7 7 8 8 9 9 9 9 10 10 10 11 12 12 12 12
9 9 9 8 8 8 8 8 8 8 8 8 8 8 7 7 7 7 7 6 6 6 6 6 6 6 7 7 7 8 8 9 9 9 9 9 9 10 11 11 12 12 13
9 9 9 8 8 7 7 8 8 8 8 8 8 7 7 7 7 7 6 6 6 6 6 6 6 6 6 7 7 7 8 8 9 9 9 9 9 10 10 11 11 12 13
9 9 9 8 8 8 7 8 8 8 8 8 8 7 7 7 7 6 6 6 6 6 6 6 6 6 7 7 7 7 8 8 8 9 9 9 9 9 10 10 11 11 11
9 9 8 8 8 8 8 8 8 8 8 8 8 7 7 7 7 6 6 6 6 6 6 6 6 6 7 7 7 7 8 8 8 9 9 9 9 9 9 10 10 10 11
9 9 8 8 8 8 8 8 8 8 8 8 8 7 7 7 7 6 6 6 6 6 6 6 6 7 7 7 7 8 8 8 8 8 9 9 9 9 9 9 10 10 10
9 8 8 8 8 8 8 9 9 9 8 8 8 8 7 7 7 6 6 6 6 6 6 6 7 7 7 7 7 8 8 8 8 8 9 9 9 9 9 9 9 10 10
9 8 8 8 8 8 8 8 8 9 9 8 8 8 8 7 7 7 6 6 6 6 6 6 7 7 7 7 7 8 8 8 8 9 9 9 9 9 9 9 9 9 10
9 8 8 8 8 8 8 8 8 8 8 8 8 8 8 8 7 7 7 6 6 6 6 7 7 7 7 8 8 8 8 8 8 9 9 9 9 9 9 9 9 9 10
9 8 8 8 8 8 8 8 8 8 8 8 8 8 8 8 7 7 7 7 7 7 7 7 7 7 7 8 8 8 8 8 9 9 9 9 9 9 9 9 9 9 9
9 9 8 8 8 8 8 8 9 8 8 8 8 8 8 8 8 7 7 7 7 7 7 7 7 7 8 8 8 8 8 9 9 9 9 9 9 9 9 9 9 9 9
9 9 9 8 8 8 8 8 8 8 8 8 8 8 8 8 7 7 7 7 7 7 8 8 8 8 8 8 8 8 8 9 9 9 9 9 9 9 9 9 9 9 9
9 9 8 8 8 8 8 8 8 8 8 8 8 8 8 8 8 8 8 8 8 7 7 8 8 8 8 8 8 8 9 9 9 9 9 9 9 9 9 9 9 9 9
9 9 8 8 8 8 8 8 9 9 8 8 8 8 8 8 8 8 8 8 8 8 8 8 8 8 8 8 8 9 9 9 9 9 9 9 9 9 9 9 9 9 9
9 8 8 8 8 8 8 8 9 9 9 8 8 8 8 8 8 8 8 7 7 7 7 8 8 8 8 8 8 8 9 9 9 9 9 9 9 9 9 9 9 9 9
8 8 8 8 8 8 8 8 9 9 9 9 8 8 8 8 8 8 8 7 7 7 7 7 8 8 8 8 8 8 8 8 9 9 9 9 9 9 9 9 9 9 8
8 8 8 8 8 8 8 8 8 9 9 9 9 9 8 8 8 8 8 7 7 7 7 7 7 7 8 8 8 8 8 8 8 8 8 8 8 8 8 8 8 8 8
Wind_Speed
5 5 5 5 5 5 6 7 7 7 7 7 8 8 8 8 8 7 7 7 7 7 7 7 8 7 5 5 4 3 3 3 5 4 2 1 3 7 6 6 8 8 7
5 5 5 6 6 6 7 8 8 8 8 8 8 8 9 9 8 8 9 9 8 8 8 8 9 7 7 6 5 5 4 4 4 4 2 2 3 7 8 8 6 6 6
5 5 5 6 6 7 8 8 8 8 9 8 8 9 9 9 9 9 10 10 10 10 9 9 9 8 8 6 6 6 5 5 4 4 3 2 2 5 7 7 8 6 6
5 5 6 7 8 8 8 8 8 8 8 9 9 9 9 10 10 10 10 10 11 11 10 9 9 9 9 9 7 7 6 5 5 4 3 3 3 4 7 8 6 4 4
5 6 7 8 8 7 8 8 8 8 9 9 9 9 9 9 10 10 10 11 10 10 10 9 10 12 14 10 8 8 7 6 5 5 5 3 4 7 7 6 8 7 4
6 7 7 7 7 7 8 8 8 9 9 9 9 9 10 10 13 15 13 10 9 10 10 9 10 12 14 15 15 14 12 9 8 6 6 6 6 6 6 9 9 8 5
6 7 7 7 7 8 9 9 9 9 9 9 9 10 11 13 17 18 19 12 11 11 11 10 12 12 11 9 11 14 14 16 14 9 8 7 7 7 9 11 10 8 5
7 7 7 7 8 9 9 9 10 9 9 10 10 11 11 13 16 17 18 13 11 11 11 11 11 11 11 9 8 8 8 10 12 9 8 7 7 7 10 10 10 8 7
7 7 7 7 9 9 10 11 10 9 10 10 10 10 11 13 15 16 15 8 9 11 12 12 12 12 14 14 9 8 7 7 10 12 10 9 9 10 10 9 11 11 8
7 8 7 8 9 10 11 11 10 9 10 10 10 10 10 11 14 15 13 6 8 9 9 10 14 14 14 15 10 9 9 8 7 7 8 8 8 10 13 12 13 13 9
7 7 8 8 9 10 9 9 10 10 10 9 10 9 9 10 11 13 11 5 7 7 7 7 7 13 14 14 11 8 10 8 7 8 7 7 7 8 9 9 10 12 10
7 7 8 9 9 10 9 10 10 9 9 9 8 8 7 7 7 9 10 9 8 7 6 6 7 11 12 13 10 11 12 9 6 7 7 7 8 8 8 9 9 8 6
6 8 9 10 9 9 9 10 10 8 7 7 7 7 7 6 6 8 9 9 7 5 5 7 8 9 9 9 11 12 9 6 6 6 8 8 7 7 8 7 7 7 6
7 8 8 9 10 9 8 8 8 8 8 7 7 7 6 5 5 4 5 5 5 4 4 4 4 6 6 6 7 7 6 6 6 6 7 6 5 6 7 7 7 8 7
7 8 8 8 9 9 9 8 9 9 9 8 7 7 6 7 6 6 5 4 4 4 3 2 1 2 3 4 4 5 5 5 6 5 5 5 6 7 7 7 7 8 7
7 7 7 8 8 8 9 11 13 12 14 14 13 10 8 10 10 9 8 8 8 6 2 2 2 3 3 4 5 5 5 6 6 6 6 6 6 7 7 8 9 9 9
7 8 7 7 8 9 8 9 11 12 12 11 12 12 12 12 10 10 9 8 7 4 3 4 4 4 4 4 5 5 6 6 6 6 6 6 6 6 7 8 10 9 9
7 8 8 7 8 9 9 9 8 8 8 7 8 10 11 11 11 10 8 5 4 3 4 5 5 5 4 5 5 5 6 5 5 6 6 6 7 7 7 9 10 10 10
7 6 7 7 8 8 8 8 8 8 7 7 6 6 7 6 7 7 6 5 5 5 5 6 6 6 5 5 5 5 6 6 6 6 7 7 7 7 7 8 9 13 11
6 10 10 7 8 8 8 8 7 7 7 6 6 6 3 2 3 4 5 6 6 7 6 6 6 6 6 6 6 6 6 6 6 7 7 8 8 8 8 9 10 11 11
5 8 11 9 7 8 8 8 7 7 6 6 6 6 5 4 5 5 5 5 6 7 7 7 6 6 6 6 6 7 7 6 6 7 7 8 8 8 8 9 10 11 10
5 6 6 7 7 7 8 8 7 6 6 7 6 6 7 4 5 5 5 6 6 6 6 6 6 6 6 7 7 7 7 7 7 7 7 8 8 9 9 9 11 11 11
5 6 6 6 6 9 9 7 7 6 6 6 6 5 5 5 5 5 5 5 5 5 4 5 5 5 5 5 6 7 8 8 8 8 9 9 9 9 9 10 12 13 13
5 5 5 6 6 6 7 8 7 6 6 6 5 5 5 5 5 5 5 5 4 4 4 4 4 5 6 5 5 5 6 7 7 8 11 10 10 9 9 10 12 14 14
4 4 4 5 6 6 7 8 7 7 6 5 5 5 5 6 5 5 5 4 4 4 4 3 3 3 5 5 4 4 6 8 8 7 8 9 10 11 11 12 12 13 12
3 3 4 5 5 6 7 7 8 8 6 5 6 5 5 6 6 6 5 4 3 2 2 2 2 1 1 1 2 3 5 7 8 9 8 9 10 10 11 11 14 13 14
Wind_Direction
267 264 270 272 270 270 269 269 269 269 271 271 272 276 280 282 283 282 279 280 276 278 278 271 264 260 255 249 232 221 224 222 251 266 260 229 152 147 129 119 121 123 135
257 260 263 266 271 273 271 269 266 265 265 262 262 264 269 274 272 272 276 280 271 269 271 269 267 266 254 245 236 229 222 219 232 258 261 224 164 155 140 128 115 111 109
262 263 270 275 276 274 272 272 270 266 265 264 260 257 260 263 264 263 263 266 265 260 258 257 259 258 255 245 236 232 225 229 223 237 250 243 159 146 132 116 110 107 104
263 267 273 274 273 272 273 275 273 269 266 264 259 255 255 255 256 259 259 260 262 261 256 251 250 247 246 240 236 229 221 220 222 231 233 236 180 155 142 140 133 119 108
269 273 272 275 278 279 280 280 279 274 276 267 265 261 258 258 260 255 252 259 258 260 259 254 251 252 248 240 232 220 211 210 213 223 222 215 192 170 163 154 147 134 103
274 277 280 285 288 286 285 284 284 280 277 274 268 264 264 271 268 262 258 254 251 252 255 254 257 263 258 249 240 225 209 204 205 212 217 213 206 181 164 159 152 150 147
285 286 288 290 292 290 294 296 288 285 280 278 272 267 266 265 263 263 262 257 247 246 245 246 258 259 252 241 239 233 223 216 204 198 211 213 206 188 171 171 170 159 143
293 292 293 296 295 294 293 291 288 283 280 278 277 272 271 274 269 263 262 258 247 243 241 238 239 246 249 236 232 231 224 218 211 205 206 213 212 197 183 175 162 131 107
295 292 293 296 298 299 297 295 291 288 285 281 277 275 275 279 276 271 266 256 246 244 242 239 234 236 237 227 221 221 222 226 219 207 200 200 198 193 176 156 155 154 149
288 288 292 296 297 298 295 293 291 287 284 285 283 279 276 278 280 279 272 251 247 249 247 241 237 233 229 217 210 209 214 216 201 197 197 198 200 197 186 179 172 169 156
284 293 298 298 297 294 291 291 292 292 291 287 285 285 283 280 285 287 281 248 240 248 248 241 235 229 224 217 206 206 213 202 193 187 187 191 196 199 197 193 183 175 167
293 301 301 299 301 308 300 299 295 292 291 290 288 292 290 289 290 296 294 274 248 243 245 237 231 227 222 216 209 212 212 201 188 182 185 193 199 200 197 193 188 180 163
303 304 302 302 300 297 296 298 300 295 289 289 287 287 291 292 296 307 309 300 272 245 244 245 236 224 216 211 207 201 195 190 182 184 192 198 197 190 181 182 177 155 129
301 301 301 303 305 305 300 294 293 292 290 288 285 283 285 288 290 305 311 308 292 271 265 266 247 212 199 189 184 183 184 186 180 184 192 192 179 177 181 177 178 166 149
297 297 299 299 300 305 302 295 290 280 271 270 272 267 269 279 272 276 286 289 285 273 279 265 225 179 172 169 168 172 183 185 187 179 179 179 179 182 184 177 174 167 164
298 301 300 303 304 303 305 309 299 287 286 275 257 251 254 251 266 277 282 285 286 279 265 241 234 212 195 184 179 181 192 195 192 184 178 179 182 182 183 178 176 173 170
286 292 297 299 302 304 303 303 308 311 305 291 276 267 254 257 260 265 270 282 286 267 241 238 236 227 212 197 189 189 195 197 189 184 185 184 179 178 178 180 178 176 172
287 294 298 294 298 300 299 297 294 295 304 306 293 278 270 262 259 257 259 271 271 242 230 234 235 232 225 211 202 201 200 190 185 188 189 187 180 176 178 181 180 177 169
291 293 295 296 297 297 297 297 296 293 292 296 301 301 284 276 269 256 236 232 244 244 238 237 235 229 227 221 212 203 195 192 188 187 191 188 181 175 179 180 178 172 168
290 303 311 302 302 303 303 303 301 297 296 299 300 294 289 262 268 254 224 232 243 247 243 242 240 234 226 223 215 207 200 196 190 189 190 188 183 180 180 179 176 175 176
290 304 313 309 300 301 303 302 299 297 296 297 295 287 272 256 265 267 256 242 239 243 243 242 238 233 227 218 210 205 201 199 195 193 188 184 182 180 181 180 178 175 173
287 292 298 301 304 307 308 305 303 303 304 301 298 299 291 275 276 276 270 261 250 243 239 235 236 231 221 215 208 202 201 199 197 191 188 183 180 179 178 178 176 174 173
288 295 300 303 307 313 317 316 316 312 309 308 307 306 308 301 293 289 282 278 270 262 251 240 239 236 227 216 206 198 199 201 196 187 182 178 176 177 176 176 175 174 175
290 294 303 310 315 318 318 318 320 319 314 316 317 309 303 300 299 295 291 287 280 272 262 243 235 233 227 221 212 204 201 196 185 184 179 178 177 175 175 176 175 175 176
293 305 317 317 318 320 320 321 323 323 322 320 319 313 305 305 308 308 304 298 296 292 291 280 260 247 239 227 211 204 196 189 186 182 177 176 176 175 174 174 174 171 171
308 329 330 323 321 323 324 323 323 323 321 321 319 314 313 318 323 327 323 318 316 313 314 312 295 270 233 194 183 182 183 185 186 184 178 175 175 176 173 173 170 171 170
Height
1498 1495 1492 1489 1486 1483 1481 1478 1475 1472 1470 1468 1465 1463 1461 1459 1458 1456 1455 1454 1453 1452 1453 1453 1453 1454 1455 1456 1457 1458 1459 1461 1462 1462 1464 1466 1468 1471 1474 1477 1480 1483 1486
1494 1491 1488 1485 1482 1479 1476 1473 1470 1467 1465 1463 1460 1458 1456 1454 1452 1451 1449 1448 1447 1446 1446 1446 1447 1448 1449 1450 1452 1453 1454 1456 1457 1458 1460 1463 1465 1467 1471 1474 1476 1479 1482
1489 1487 1484 1480 1477 1474 1470 1467 1465 1462 1459 1457 1455 1452 1450 1448 1447 1445 1443 1442 1440 1440 1439 1440 1440 1442 1442 1444 1446 1447 1449 1450 1452 1454 1455 1458 1460 1463 1466 1470 1473 1475 1478
1485 1482 1479 1475 1472 1468 1465 1462 1459 1456 1453 1450 1448 1446 1444 1442 1440 1438 1436 1435 1434 1433 1432 1432 1433 1434 1436 1438 1440 1441 1443 1445 1446 1448 1450 1453 1456 1459 1462 1465 1469 1472 1474
1480 1477 1474 1470 1467 1463 1460 1456 1453 1450 1447 1444 1442 1439 1437 1435 1432 1430 1429 1427 1426 1425 1425 1425 1426 1427 1428 1430 1433 1435 1438 1439 1440 1442 1445 1448 1451 1454 1457 1461 1465 1468 1471
1476 1472 1469 1465 1461 1458 1454 1450 1446 1443 1440 1438 1435 1432 1430 1427 1425 1423 1421 1420 1418 1418 1417 1417 1418 1419 1421 1423 1425 1428 1431 1433 1435 1437 1439 1442 1445 1449 1453 1456 1460 1463 1467
1471 1467 1464 1460 1456 1452 1448 1444 1440 1437 1434 1431 1428 1425 1422 1419 1417 1415 1413 1411 1410 1409 1408 1409 1409 1410 1413 1415 1417 1421 1423 1426 1429 1431 1433 1436 1440 1444 1448 1452 1455 1459 1463
1466 1462 1459 1455 1450 1446 1442 1438 1435 1431 1428 1425 1422 1418 1415 1411 1409 1406 1404 1402 1400 1400 1400 1400 1400 1401 1404 1407 1410 1413 1416 1419 1422 1425 1428 1431 1435 1439 1443 1447 1450 1456 1461
1461 1458 1454 1449 1445 1440 1436 1433 1429 1426 1422 1419 1416 1412 1408 1404 1401 1398 1396 1393 1392 1391 1391 1391 1392 1393 1395 1399 1402 1405 1408 1412 1416 1419 1422 1425 1429 1433 1437 1441 1446 1451 1456
1457 1453 1449 1444 1440 1435 1431 1427 1424 1421 1417 1414 1410 1406 1402 1398 1395 1392 1389 1386 1384 1383 1382 1383 1384 1385 1387 1391 1395 1398 1402 1406 1410 1413 1416 1419 1422 1426 1431 1435 1441 1446 1450
1452 1448 1444 1440 1435 1431 1427 1423 1420 1416 1412 1408 1405 1401 1397 1393 1389 1386 1383 1380 1378 1376 1375 1375 1376 1378 1381 1384 1388 1392 1395 1401 1404 1408 1411 1413 1416 1420 1425 1430 1435 1441 1445
1448 1444 1439 1435 1431 1426 1422 1418 1415 1412 1407 1403 1399 1395 1392 1388 1384 1381 1378 1375 1373 1371 1370 1370 1371 1373 1375 1378 1382 1386 1391 1395 1399 1402 1405 1408 1411 1415 1419 1424 1430 1436 1442
1443 1439 1435 1430 1426 1422 1418 1414 1411 1407 1403 1399 1395 1390 1387 1383 1380 1377 1374 1372 1369 1368 1367 1367 1367 1368 1371 1374 1377 1382 1386 1390 1394 1397 1400 1403 1407 1411 1415 1420 1425 1431 1437
1439 1435 1430 1426 1422 1418 1414 1411 1407 1403 1399 1395 1390 1386 1382 1379 1376 1373 1371 1369 1367 1366 1365 1364 1364 1366 1368 1370 1374 1378 1382 1386 1390 1393 1397 1400 1404 1407 1410 1415 1420 1425 1431
1435 1430 1426 1422 1418 1414 1410 1407 1403 1400 1396 1391 1387 1383 1378 1375 1373 1370 1368 1366 1365 1364 1363 1363 1363 1364 1365 1368 1371 1375 1379 1382 1386 1390 1394 1397 1400 1403 1407 1411 1416 1421 1425
1430 1426 1422 1418 1414 1410 1406 1402 1399 1396 1392 1387 1383 1379 1375 1372 1369 1367 1365 1364 1363 1362 1362 1362 1362 1362 1364 1366 1369 1372 1376 1379 1383 1387 1390 1394 1397 1400 1403 1408 1412 1416 1421
1427 1422 1418 1415 1411 1407 1403 1399 1395 1391 1388 1384 1380 1376 1372 1368 1366 1364 1362 1361 1360 1360 1360 1360 1361 1361 1363 1365 1367 1370 1373 1377 1380 1383 1386 1390 1393 1397 1400 1404 1407 1412 1417
1423 1419 1415 1411 1407 1403 1400 1396 1392 1388 1384 1380 1376 1372 1369 1366 1363 1361 1360 1359 1358 1357 1357 1358 1359 1359 1361 1363 1365 1368 1370 1373 1376 1379 1383 1386 1390 1393 1396 1400 1404 1408 1413
1419 1415 1411 1408 1404 1400 1397 1393 1389 1386 1382 1377 1373 1370 1367 1364 1361 1359 1357 1356 1355 1354 1355 1355 1356 1357 1358 1360 1362 1365 1367 1370 1372 1375 1379 1382 1385 1389 1393 1396 1400 1404 1409
1416 1412 1408 1404 1401 1397 1394 1390 1386 1383 1379 1375 1371 1368 1364 1361 1359 1357 1355 1353 1352 1351 1351 1352 1352 1353 1355 1356 1358 1360 1363 1365 1368 1371 1374 1378 1382 1385 1389 1392 1396 1401 1405
1412 1408 1405 1401 1398 1394 1391 1387 1384 1380 1376 1373 1369 1366 1363 1359 1357 1355 1353 1351 1349 1348 1348 1348 1349 1350 1351 1352 1354 1356 1359 1361 1364 1367 1370 1374 1377 1381 1385 1389 1393 1398 1402
1408 1405 1401 1398 1395 1391 1388 1385 1381 1378 1374 1371 1367 1364 1361 1358 1354 1352 1350 1348 1346 1345 1345 1344 1345 1345 1347 1348 1350 1352 1354 1357 1360 1363 1366 1369 1373 1377 1381 1385 1390 1394 1399
1405 1401 1398 1395 1392 1389 1386 1383 1379 1376 1373 1369 1366 1362 1359 1356 1352 1350 1347 1345 1343 1342 1341 1341 1341 1341 1342 1344 1345 1347 1349 1352 1355 1358 1361 1365 1368 1372 1377 1381 1385 1390 1395
1401 1398 1395 1392 1389 1386 1384 1381 1378 1375 1372 1368 1365 1361 1358 1355 1351 1348 1345 1342 1340 1339 1337 1337 1337 1337 1338 1339 1340 1342 1344 1347 1350 1353 1356 1360 1363 1368 1372 1376 1381 1386 1391
1398 1395 1392 1389 1387 1384 1382 1379 1376 1374 1371 1368 1364 1361 1358 1354 1350 1346 1343 1340 1338 1336 1334 1333 1333 1333 1333 1334 1335 1336 1338 1341 1344 1347 1351 1355 1359 1363 1368 1372 1377 1383 1388
1394 1392 1389 1387 1384 1382 1380 1378 1375 1373 1370 1367 1364 1361 1357 1354 1350 1346 1342 1339 1336 1334 1332 1331 1330 1329 1329 1329 1330 1332 1333 1336 1338 1342 1346 1350 1354 1359 1364 1369 1374 1379 1385